Location: Katwijk
(52.2000°N, 4.4170°E)
Time: 13:17:59
(UTC+02:00)

ISS - Visible Passes

Search period start: 24 October 2014 00:00
Search period end: 02 November 2014 23:00
Orbit: 413 x 416 km, 51.6° (Epoch: 24 October)

Date Brightness Start Highest point End Pass type
(mag) Time Alt. Az. Time Alt. Az. Time Alt. Az.
24 Oct -1.9 19:25:28 10° W 19:28:35 36° SSW 19:31:41 10° SE visible
25 Oct -0.4 20:13:45 10° WSW 20:15:37 14° SW 20:17:29 10° S visible
26 Oct -0.8 18:24:03 10° W 18:26:36 20° SW 18:29:09 10° SSE visible
28 Oct 0.1 18:23:41 10° SW 18:24:19 10° SW 18:24:57 10° SSW visible
